Weather History for KLBF - July, 2013

Change the Weather History Date:

Monday, July 8, 2013

  Actual Average Record
Temperature  
Mean Temperature 78 °F 74 °F  
Max Temperature 94 °F 88 °F 105 °F (1985)
Min Temperature 62 °F 60 °F 40 °F (1952)
Degree Days  
Heating Degree Days 0 0  
Month to date heating degree days 4 0  
Since 1 June heating degree days 51 51  
Since 1 July heating degree days 4 0  
Cooling Degree Days 13 9  
Month to date cooling degree days 71 69  
Year to date cooling degree days 298 235  
Since 1 June cooling degree days 250 207  
Growing Degree Days 28 (Base 50)    
Moisture  
Dew Point 65 °F    
Average Humidity 70    
Maximum Humidity 100    
Minimum Humidity 39    
Precipitation  
Precipitation 0.04 in 0.09 in 1.54 in (1988)
Month to date precipitation 0.04 0.73  
Year to date precipitation 8.15 11.59  
Snow  
Snow 0.00 in 0.00 in 0.00 in (2002)
Month to date snowfall 0.0 0.0  
Since 1 June snowfall T 0.0  
Since 1 July snowfall 0.0 0.0  
Snow Depth 0.00 in    
Sea Level Pressure  
Sea Level Pressure 29.93 in    
Wind  
Wind Speed 6 mph (ESE)    
Max Wind Speed 17 mph    
Max Gust Speed 22 mph    
Visibility 8 miles    
Events Rain    
T = Trace of Precipitation, MM = Missing Value Source: NWS Daily Summary

Daily Weather History Graph

Daily Weather History Graph

Search for Another Location

Airport or City:

Trip Planner

Search our weather history database for the weather conditions in past years. The results will help you decide how hot, cold, wet, or windy it might be!

Date:

Astronomy

Jul. 08, 2013 Rise Set
Actual Time 6:18 AM CDT 9:17 PM CDT
Civil Twilight 5:45 AM CDT 9:50 PM CDT
Nautical Twilight 5:02 AM CDT 10:32 PM CDT
Astronomical Twilight 4:13 AM CDT 11:21 PM CDT
Moon 6:49 AM CDT (7/8) 9:19 PM CDT (7/8)
Length of Visible Light 16h 05m
Length of Day
14h 58m
New Moon, 0% of the Moon is Illuminated
Jul 8
New Moon
Jul 15
First Quarter
Jul 22
Full
Jul 29
Last Quarter
Aug 6
New

Hourly Weather History & Observations

Time (CDT) Temp. Heat Index Dew Point Humidity Pressure Visibility Wind Dir Wind Speed Gust Speed Precip Events Conditions
12:37 AM 73.4 °F - 66.2 °F 78% 30.05 in 10.0 mi SSE 6.9 mph - 0.00 in Rain Light Rain
12:48 AM 71.6 °F - 68.0 °F 88% 30.05 in 10.0 mi WSW 5.8 mph - 0.00 in Rain Light Rain
12:53 AM 72.0 °F - 66.9 °F 84% 29.96 in 9.0 mi WSW 8.1 mph - 0.00 in Rain Light Rain
1:08 AM 71.6 °F - 66.2 °F 83% 30.04 in 7.0 mi Calm Calm - 0.01 in Rain Light Rain
1:53 AM 69.1 °F - 66.0 °F 90% 29.94 in 10.0 mi NE 5.8 mph - 0.04 in   Partly Cloudy
2:53 AM 68.0 °F - 64.0 °F 87% 29.89 in 10.0 mi North 6.9 mph - N/A   Clear
3:53 AM 68.0 °F - 66.0 °F 93% 29.88 in 7.0 mi Calm Calm - N/A   Clear
4:53 AM 64.9 °F - 63.0 °F 93% 29.88 in 2.5 mi SSE 6.9 mph - N/A   Clear
5:03 AM 64.4 °F - 64.4 °F 100% 29.99 in 4.0 mi SE 5.8 mph - N/A   Clear
5:53 AM 64.9 °F - 63.0 °F 93% 29.92 in 4.0 mi Calm Calm - N/A   Clear
6:34 AM 62.6 °F - 62.6 °F 100% 30.04 in 1.8 mi Calm Calm - N/A   Clear
6:45 AM 62.6 °F - 60.8 °F 94% 30.04 in 1.0 mi Calm Calm - N/A   Clear
6:51 AM 62.6 °F - 60.8 °F 94% 30.04 in 2.0 mi Calm Calm - N/A   Clear
6:53 AM 63.0 °F - 62.1 °F 97% 29.95 in 2.5 mi Calm Calm - N/A   Clear
7:00 AM 62.6 °F - 60.8 °F 94% 30.04 in 3.0 mi Calm Calm - N/A   Clear
7:08 AM 64.4 °F - 62.6 °F 94% 30.03 in 2.0 mi Calm Calm - N/A   Clear
7:40 AM 66.2 °F - 64.4 °F 94% 30.04 in 3.0 mi Calm Calm - N/A   Clear
7:53 AM 69.1 °F - 64.9 °F 87% 29.95 in 5.0 mi Calm Calm - N/A   Clear
8:53 AM 73.0 °F - 66.9 °F 81% 29.95 in 9.0 mi Calm Calm - N/A   Clear
9:53 AM 78.1 °F - 66.9 °F 68% 29.95 in 10.0 mi Calm Calm - N/A   Clear
10:53 AM 82.9 °F 84.6 °F 64.9 °F 54% 29.93 in 10.0 mi NE 5.8 mph - N/A   Clear
11:53 AM 84.9 °F 86.6 °F 64.9 °F 51% 29.91 in 10.0 mi SSE 9.2 mph - N/A   Clear
12:53 PM 88.0 °F 90.3 °F 66.0 °F 48% 29.91 in 10.0 mi SE 5.8 mph 18.4 mph N/A   Clear
1:53 PM 90.0 °F 92.4 °F 66.0 °F 45% 29.90 in 10.0 mi Variable 5.8 mph - N/A   Clear
2:53 PM 91.9 °F 94.1 °F 64.9 °F 41% 29.89 in 10.0 mi ESE 5.8 mph - N/A   Clear
3:53 PM 93.9 °F 96.1 °F 64.9 °F 38% 29.87 in 10.0 mi East 11.5 mph - N/A   Clear
4:53 PM 93.0 °F 95.0 °F 64.9 °F 39% 29.86 in 10.0 mi East 13.8 mph 20.7 mph N/A   Clear
5:53 PM 91.9 °F 94.1 °F 64.9 °F 41% 29.84 in 10.0 mi ESE 15.0 mph - N/A   Clear
6:53 PM 91.0 °F 93.0 °F 64.9 °F 42% 29.82 in 10.0 mi ESE 11.5 mph - N/A   Clear
7:53 PM 87.1 °F 88.9 °F 64.9 °F 48% 29.82 in 10.0 mi ESE 8.1 mph - N/A   Clear
8:53 PM 81.0 °F 83.0 °F 66.0 °F 60% 29.83 in 10.0 mi ESE 5.8 mph - N/A   Clear
9:53 PM 81.0 °F 83.0 °F 66.0 °F 60% 29.82 in 10.0 mi ENE 8.1 mph - N/A   Partly Cloudy
10:53 PM 77.0 °F - 64.9 °F 66% 29.84 in 10.0 mi ESE 5.8 mph - N/A   Clear
11:53 PM 77.0 °F - 66.9 °F 71% 29.85 in 10.0 mi NE 5.8 mph - N/A   Clear